This demonstration page uses our WeatherBlox Daily Observations layout. Learn more.

Left ArrowRight Arrow

Hourly Observations for December 29, 2019

Temp ( °F °C ) Dew Point ( °F °C ) Humidity (%) Winds ( mph kmh ) Pressure ( in mb ) Visibility ( mi km ) Precip ( " mm )
12:01 am 00:01 Windy with Snow Likely 28 -2 28 -2 100 100 NW 20 31 29.68 1005 1 2 0.00 0.00
12:10 am 00:10 Cloudy with Light Snow 28 -2 28 -2 100 100 NW 17 28 29.69 1005 2 2 0.00 0.00
12:40 am 00:40 Cloudy with Light Snow 28 -2 28 -2 100 100 NW 14 22 29.68 1005 2 3 0.00 0.00
12:56 am 00:56 Cloudy with Light Snow 28 -2.2 28 -2.2 100 100 NNW 17 28 29.61 1003 2 3 0.01 0.25
1:43 am 01:43 Cloudy with Light Snow 28 -2 27 -3 93 93 NW 16 26 29.68 1005 2 2 0.00 0.00
1:56 am 01:56 Cloudy with Light Snow 28 -2.2 27 -2.8 96 96 NW 18 30 29.61 1003 2 3 0.00 0.00
2:03 am 02:03 Cloudy with Light Snow 28 -2 27 -3 93 93 NW 18 30 29.67 1005 2 2 0.00 0.00
2:13 am 02:13 Windy with Snow Likely 28 -2 27 -3 93 93 NW 21 33 29.68 1005 2 3 0.00 0.00
2:56 am 02:56 Cloudy with Light Snow 27 -2.8 26 -3.3 96 96 NW 16 26 29.62 1003 2 3 0.00 0.00
3:03 am 03:03 Windy with Snow Likely 27 -3 27 -3 100 100 NW 22 35 29.69 1005 2 3 0.00 0.00
3:05 am 03:05 Windy with Snow Likely 27 -3 27 -3 100 100 NW 21 33 29.70 1006 2 3 0.00 0.00
3:56 am 03:56 Windy with Snow Likely 26 -3.3 25 -3.9 96 96 NW 25 41 29.62 1003 1 2 0.00 0.00
4:14 am 04:14 Windy with Snow Likely 25 -4 25 -4 100 100 NW 21 33 29.70 1006 2 3 0.00 0.00
4:26 am 04:26 Cloudy with Light Snow 25 -4 25 -4 100 100 NW 18 30 29.70 1006 2 3 0.00 0.00
4:37 am 04:37 Cloudy with Light Snow 25 -4 25 -4 100 100 NW 18 30 29.71 1006 2 3 0.00 0.00
4:54 am 04:54 Windy with Snow Likely 25 -4 25 -4 100 100 NW 21 33 29.70 1006 2 3 0.00 0.00
4:56 am 04:56 Cloudy with Light Snow 25 -3.9 24 -4.4 96 96 NW 18 30 29.63 1004 2 3 0.00 0.00
5:09 am 05:09 Windy with Snow Likely 25 -4 23 -5 93 93 NW 21 33 29.70 1006 2 2 0.00 0.00
5:21 am 05:21 Cloudy with Light Snow 25 -4 23 -5 93 93 NW 16 26 29.70 1006 2 3 0.00 0.00
5:35 am 05:35 Cloudy with Light Snow 25 -4 23 -5 93 93 NW 16 26 29.70 1006 2 3 0.00 0.00
5:44 am 05:44 Windy with Snow Likely 25 -4 23 -5 93 93 NW 21 33 29.70 1006 1 2 0.00 0.00
5:53 am 05:53 Cloudy with Light Snow 25 -4 23 -5 93 93 NW 18 30 29.70 1006 1 2 0.00 0.00
5:56 am 05:56 Cloudy with Light Snow 25 -3.9 23 -5 92 92 NW 18 30 29.63 1004 2 2 0.00 0.00
6:03 am 06:03 Windy with Snow Likely 25 -4 23 -5 93 93 NW 21 33 29.70 1006 2 3 0.00 0.00
6:23 am 06:23 Cloudy with Light Snow 25 -4 23 -5 93 93 NW 18 30 29.70 1006 3 4 0.00 0.00
6:46 am 06:46 Windy with Snow Likely 25 -4 23 -5 93 93 NW 22 35 29.70 1006 2 2 0.00 0.00
6:56 am 06:56 Windy with Snow Likely 24 -4.4 22 -5.6 91 91 NW 22 35 29.63 1003 1 2 0.00 0.00
7:05 am 07:05 Windy with Snow Likely 25 -4 21 -6 86 86 NW 24 39 29.70 1006 2 3 0.00 0.00
7:23 am 07:23 Windy with Snow Likely 25 -4 21 -6 86 86 NW 21 33 29.70 1006 3 5 0.00 0.00
7:27 am 07:27 Windy with Snow Likely 25 -4 21 -6 86 86 NW 20 31 29.70 1006 3 4 0.00 0.00
7:38 am 07:38 Windy with Snow Likely 25 -4 21 -6 86 86 NW 20 31 29.70 1006 3 5 0.00 0.00
7:56 am 07:56 Windy with Snow Likely 24 -4.4 22 -5.6 91 91 NW 20 31 29.64 1004 2 3 0.00 0.00
8:14 am 08:14 Windy with Snow Likely 25 -4 21 -6 86 86 WNW 24 39 29.70 1006 2 3 0.00 0.00
8:24 am 08:24 Windy with Snow Likely 25 -4 21 -6 86 86 NW 22 35 29.70 1006 2 3 0.00 0.00
8:30 am 08:30 Windy with Snow Likely 25 -4 21 -6 86 86 WNW 23 37 29.70 1006 2 3 0.00 0.00
8:41 am 08:41 Windy with Snow Likely 25 -4 21 -6 86 86 NW 20 31 29.71 1006 2 3 0.00 0.00
8:51 am 08:51 Windy with Snow Likely 25 -4 21 -6 86 86 NW 20 31 29.71 1006 3 4 0.00 0.00
8:56 am 08:56 Windy with Snow Likely 24 -4.4 22 -5.6 91 91 NW 23 37 29.64 1004 3 5 0.00 0.00
9:08 am 09:08 Windy with Snow Likely 25 -4 21 -6 86 86 NW 21 33 29.71 1006 2 3 0.00 0.00
9:26 am 09:26 Cloudy with Light Snow 25 -4 21 -6 86 86 NW 18 30 29.72 1007 2 3 0.00 0.00
9:34 am 09:34 Windy with Snow Likely 25 -4 21 -6 86 86 NW 22 35 29.72 1007 2 2 0.00 0.00
9:56 am 09:56 Windy with Snow Likely 25 -3.9 23 -5 92 92 NW 20 31 29.66 1004 1 2 0.00 0.00
10:02 am 10:02 Windy with Snow Likely 25 -4 23 -5 93 93 NW 22 35 29.72 1007 1 1 0.00 0.00
10:33 am 10:33 Windy with Snow Likely 27 -3 23 -5 86 86 NW 20 31 29.73 1007 1 2 0.00 0.00
10:51 am 10:51 Cloudy with Light Snow 27 -3 23 -5 86 86 NW 18 30 29.73 1007 1 2 0.00 0.00
10:56 am 10:56 Cloudy with Light Snow 26 -3.3 23 -5 88 88 WNW 18 30 29.67 1005 1 2 0.00 0.00
11:01 am 11:01 Cloudy with Light Snow 27 -3 25 -4 93 93 WNW 17 28 29.73 1007 1 2 0.00 0.00
11:12 am 11:12 Cloudy with Light Snow 27 -3 25 -4 93 93 NW 18 30 29.72 1006 2 2 0.00 0.00
11:39 am 11:39 Windy with Snow Likely 27 -3 25 -4 93 93 NW 21 33 29.72 1006 1 2 0.00 0.00
11:49 am 11:49 Windy with Snow Likely 27 -3 25 -4 93 93 NW 21 33 29.71 1006 1 1 0.00 0.00
11:56 am 11:56 Windy with Snow Likely 27 -2.8 24 -4.4 89 89 NW 20 31 29.65 1004 1 1 0.00 0.00
12:07 pm 12:07 Windy with Snow Likely 27 -3 25 -4 93 93 NW 22 35 29.71 1006 1 1 0.00 0.00
12:16 pm 12:16 Windy with Snow Likely 27 -3 25 -4 93 93 NW 21 33 29.71 1006 1 2 0.00 0.00
12:20 pm 12:20 Cloudy with Light Snow 27 -3 25 -4 93 93 NW 18 30 29.70 1006 1 2 0.00 0.00
12:29 pm 12:29 Windy with Snow Likely 27 -3 25 -4 93 93 NW 23 37 29.70 1006 2 3 0.00 0.00
12:31 pm 12:31 Windy with Snow Likely 27 -3 25 -4 93 93 NW 24 39 29.70 1006 2 3 0.00 0.00
12:37 pm 12:37 Cloudy with Light Snow 27 -3 23 -5 86 86 NW 18 30 29.70 1006 1 2 0.00 0.00
12:42 pm 12:42 Cloudy with Light Snow 27 -3 23 -5 86 86 NW 16 26 29.70 1006 1 1 0.00 0.00
12:45 pm 12:45 Cloudy with Light Snow 27 -3 23 -5 86 86 NW 17 28 29.70 1006 1 1 0.00 0.00
12:56 pm 12:56 Windy with Snow Likely 27 -2.8 23 -5 85 85 NW 23 37 29.63 1003 1 2 0.00 0.00
1:03 pm 13:03 Cloudy with Light Snow 27 -3 23 -5 86 86 NW 18 30 29.70 1006 1 2 0.00 0.00
1:28 pm 13:28 Cloudy with Light Snow 27 -3 23 -5 86 86 NW 16 26 29.69 1005 3 4 0.00 0.00
1:42 pm 13:42 Windy with Snow Likely 27 -3 23 -5 86 86 NW 23 37 29.68 1005 1 2 0.00 0.00
1:56 pm 13:56 Windy with Snow Likely 27 -2.8 24 -4.4 89 89 NW 20 31 29.63 1003 1 2 0.00 0.00
2:13 pm 14:13 Cloudy with Light Snow 27 -3 23 -5 86 86 NW 17 28 29.69 1005 1 2 0.00 0.00
2:20 pm 14:20 Windy with Snow Likely 27 -3 23 -5 86 86 NW 21 33 29.69 1005 2 3 0.00 0.00
2:42 pm 14:42 Cloudy with Light Snow 27 -3 25 -4 93 93 NW 18 30 29.70 1006 1 2 0.00 0.00
2:47 pm 14:47 Windy with Snow Likely 27 -3 25 -4 93 93 NW 22 35 29.69 1005 1 2 0.00 0.00
2:54 pm 14:54 Windy with Snow Likely 27 -3 25 -4 93 93 NW 22 35 29.70 1006 3 5 0.00 0.00
2:56 pm 14:56 Windy with Snow Likely 27 -2.8 24 -4.4 89 89 NW 20 31 29.64 1004 5 8 0.00 0.00
3:13 pm 15:13 Cloudy with Light Snow 27 -3 23 -5 86 86 NNW 18 30 29.70 1006 1 2 0.00 0.00
3:23 pm 15:23 Windy with Snow Likely 27 -3 23 -5 86 86 NW 21 33 29.70 1006 4 6 0.00 0.00
3:56 pm 15:56 Windy with Snow Likely 27 -2.8 23 -5 85 85 NW 24 39 29.65 1004 5 8 0.00 0.00
4:08 pm 16:08 Windy with Snow Likely 27 -3 25 -4 93 93 NNW 24 39 29.72 1006 2 3 0.00 0.00
4:21 pm 16:21 Windy with Snow Likely 27 -3 25 -4 93 93 NW 22 35 29.73 1007 3 5 0.00 0.00
4:32 pm 16:32 Windy with Snow Likely 27 -3 25 -4 93 93 NW 26 43 29.73 1007 2 3 0.00 0.00
4:45 pm 16:45 Windy with Snow Likely 27 -3 25 -4 93 93 NW 23 37 29.73 1007 2 3 0.00 0.00
4:56 pm 16:56 Windy with Snow Likely 27 -2.8 24 -4.4 89 89 NNW 26 43 29.68 1005 2 3 0.00 0.00
5:11 pm 17:11 Windy with Snow Likely 27 -3 25 -4 93 93 NW 24 39 29.74 1007 5 8 0.00 0.00
5:56 pm 17:56 Windy with Snow Likely 28 -2.2 24 -4.4 85 85 NW 28 44 29.69 1006 3 5 0.00 0.00
6:56 pm 18:56 Cloudy with Light Wintry Mix 28 -2.2 24 -4.4 85 85 NW 25 41 29.72 1006 5 8 0.00 0.00
7:53 pm 19:53 Windy with Snow Likely 28 -2 23 -5 80 80 NW 24 39 29.78 1008 4 6 0.00 0.00
7:56 pm 19:56 Windy with Snow Likely 28 -2.2 23 -5 81 81 NW 22 35 29.74 1007 5 8 0.00 0.00
8:56 pm 20:56 Windy with Snow Likely 28 -2.2 22 -5.6 78 78 NW 24 39 29.74 1007 5 8 0.00 0.00
9:56 pm 21:56 Windy with Snow Likely 27 -2.8 22 -5.6 81 81 NW 24 39 29.75 1008 6 10 0.00 0.00
10:56 pm 22:56 Windy with Snow Likely 26 -3.3 21 -6.1 81 81 NW 26 43 29.76 1008 8 13 0.00 0.00
11:56 pm 23:56 Mostly Clear 26 -3.3 21 -6.1 81 81 NW 25 41 29.77 1008 9 14 0.00 0.00

Powered by AerisWeather